Albuquerque Double Eagle, NM

9:39 PM MDT on May 28, 2017 (GMT -0600)
Double Eagle Ii

Weather History for KAEG - February, 2013

Change the Weather History Date:

Tuesday, February 26, 2013

  Actual Average (KABQ) Record (KABQ)
Temperature  
Mean Temperature 24 °F -  
Max Temperature 41 °F 57 °F 74 °F (1986)
Min Temperature 8 °F 30 °F 13 °F (1935)
Degree Days  
Heating Degree Days 40    
Moisture  
Dew Point 1 °F    
Average Humidity 37    
Maximum Humidity 67    
Minimum Humidity 12    
Precipitation  
Precipitation 0.00 in - - ()
Sea Level Pressure  
Sea Level Pressure 29.95 in    
Wind  
Wind Speed 11 mph (WNW)    
Max Wind Speed 34 mph    
Max Gust Speed 46 mph    
Visibility 10 miles    
Events      
Averages and records for this station are not official NWS values.
T = Trace of Precipitation, MM = Missing Value Source: NWS Daily Summary

Daily Weather History Graph

Daily Weather History Graph

Search for Another Location

Airport or City:

Trip Planner

Search our weather history database for the weather conditions in past years. The results will help you decide how hot, cold, wet, or windy it might be!

Date:

Astronomy

Feb. 26, 2013 Rise Set
Actual Time 6:40 AM MST 6:00 PM MST
Civil Twilight 6:14 AM MST 6:25 PM MST
Nautical Twilight 5:45 AM MST 6:55 PM MST
Astronomical Twilight 5:15 AM MST 7:24 PM MST
Moon 7:14 PM MST (2/26) 6:48 AM MST (2/26)
Length of Visible Light 12h 11m
Length of Day
11h 20m
Full, 99% of the Moon is Illuminated
Feb 26
Full
Mar 4
Last Quarter
Mar 11
New
Mar 19
First Quarter
Mar 27
Full

Hourly Weather History & Observations

Time (MST) Temp. Windchill Dew Point Humidity Pressure Visibility Wind Dir Wind Speed Gust Speed Precip Events Conditions
12:15 AM 17.6 °F 9.3 °F -2.2 °F 42% 29.94 in 10.0 mi SW 5.8 mph - N/A   Clear
12:35 AM 17.6 °F 8.2 °F -0.4 °F 45% 29.93 in 10.0 mi SW 6.9 mph - N/A   Clear
12:55 AM 21.2 °F 12.6 °F 5.0 °F 50% 29.93 in 10.0 mi WSW 6.9 mph - N/A   Clear
1:15 AM 19.4 °F 14.3 °F 5.0 °F 54% 29.93 in 10.0 mi SW 3.5 mph - N/A   Clear
1:35 AM 23.0 °F 15.8 °F 6.8 °F 50% 29.92 in 10.0 mi SSW 5.8 mph - N/A   Clear
1:55 AM 21.2 °F - 5.0 °F 50% 29.92 in 10.0 mi Calm Calm - N/A   Clear
2:15 AM 19.4 °F - 3.2 °F 49% 29.92 in 10.0 mi Calm Calm - N/A   Clear
2:35 AM 17.6 °F - 1.4 °F 49% 29.91 in 10.0 mi Calm Calm - N/A   Clear
2:55 AM 17.6 °F - 5.0 °F 58% 29.91 in 10.0 mi Calm Calm - N/A   Clear
3:15 AM 19.4 °F 11.5 °F 5.0 °F 54% 29.90 in 10.0 mi WSW 5.8 mph - N/A   Clear
3:35 AM 17.6 °F 5.0 °F 5.0 °F 58% 29.90 in 10.0 mi WSW 11.5 mph - N/A   Clear
3:55 AM 17.6 °F - 5.0 °F 58% 29.90 in 10.0 mi North - - N/A   Clear
4:15 AM 21.2 °F - 6.8 °F 54% 29.90 in 10.0 mi Calm Calm - N/A   Clear
4:35 AM 15.8 °F - 1.4 °F 53% 29.89 in 10.0 mi Calm Calm - N/A   Clear
6:50 AM 8.6 °F -2.6 °F -0.4 °F 67% 29.88 in 10.0 mi South 6.9 mph - N/A   Clear
7:50 AM 23.0 °F - 6.8 °F 50% 29.88 in 10.0 mi Calm Calm - N/A   Clear
8:50 AM 33.8 °F 25.3 °F 6.8 °F 32% 29.88 in 10.0 mi SW 11.5 mph - N/A   Clear
9:50 AM 37.4 °F 28.5 °F 6.8 °F 28% 29.88 in 10.0 mi WSW 15.0 mph 20.7 mph N/A   Clear
10:50 AM 39.2 °F 29.6 °F 3.2 °F 22% 29.87 in 10.0 mi NNW 19.6 mph - N/A   Clear
11:50 AM 41.0 °F 29.8 °F -0.4 °F 18% 29.86 in 10.0 mi WNW 29.9 mph - N/A   Partly Cloudy
12:50 PM 41.0 °F 30.0 °F -0.4 °F 18% 29.84 in 10.0 mi NW 28.8 mph 32.2 mph N/A   Scattered Clouds
2:50 PM 39.2 °F 26.6 °F -7.6 °F 14% 29.86 in 10.0 mi WNW 34.5 mph 46.0 mph N/A   Scattered Clouds
3:50 PM 39.2 °F 28.0 °F -9.4 °F 12% 29.88 in 10.0 mi NW 26.5 mph 35.7 mph N/A   Scattered Clouds
4:50 PM 35.6 °F 22.1 °F -9.4 °F 14% 29.91 in 10.0 mi NW 32.2 mph 39.1 mph N/A   Scattered Clouds
5:50 PM 32.0 °F 18.4 °F -13.0 °F 14% 29.93 in 10.0 mi NW 26.5 mph 33.4 mph N/A   Clear
6:50 PM 32.0 °F 19.5 °F -4.0 °F 21% 29.97 in 10.0 mi NW 21.9 mph 29.9 mph N/A   Clear
7:50 PM 28.4 °F 15.8 °F -2.2 °F 27% 30.00 in 10.0 mi NW 18.4 mph 31.1 mph N/A   Clear
8:50 PM 26.6 °F 13.4 °F -2.2 °F 29% 30.02 in 10.0 mi NW 18.4 mph 24.2 mph N/A   Clear
9:15 PM 26.6 °F 12.7 °F -2.2 °F 29% 30.03 in 10.0 mi NW 20.7 mph - N/A   Clear
9:35 PM 26.6 °F 12.7 °F -2.2 °F 29% 30.04 in 10.0 mi NW 20.7 mph 26.5 mph N/A   Clear
9:50 PM 26.6 °F 12.4 °F -2.2 °F 29% 30.04 in 10.0 mi NW 21.9 mph - N/A   Clear
9:55 PM 26.6 °F 13.4 °F -2.2 °F 29% 30.04 in 10.0 mi NW 18.4 mph - N/A   Clear
10:15 PM 26.6 °F 13.1 °F -0.4 °F 31% 30.04 in 10.0 mi NW 19.6 mph - N/A   Clear
10:35 PM 26.6 °F 13.1 °F -0.4 °F 31% 30.05 in 10.0 mi NW 19.6 mph - N/A   Clear
10:55 PM 26.6 °F 13.1 °F -0.4 °F 31% 30.05 in 10.0 mi NW 19.6 mph 24.2 mph N/A   Clear
11:15 PM 24.8 °F 11.5 °F -0.4 °F 34% 30.06 in 10.0 mi NNW 17.3 mph - N/A   Clear
11:35 PM 24.8 °F 11.5 °F 1.4 °F 36% 30.06 in 10.0 mi NNW 17.3 mph 26.5 mph N/A   Clear
11:55 PM 24.8 °F 11.1 °F 1.4 °F 36% 30.06 in 10.0 mi NNW 18.4 mph 25.3 mph N/A   Clear